TOURFACTS.DK  
Stats and Facts from Tour de France.

Tour de France 2019 starts in 321 days
  Riders   Stages   Teams   Summits   Yearly  


 
Search by year

After 2018 - Stage 21:
 15000 starters.
  5165 different riders.
  638 teams.
  2253 stages.
  456 restdays.
  442940.60 km.
  5684 abandonnees.


Top 3
GC
Geraint Thomas83:17:13
Tom Dumoulin83:19:04
Christopher Froome83:19:37
Climb
Julian Alaphilippe170 pt.
Warren Barguil91 pt.
Rafal Majka76 pt.
Sprint
Peter Sagan477 pt.
Alexander Kristoff246 pt.
Arnaud Démare203 pt.
Youth
Pierre-Roger Latou..83:39:26
Egan Bernal83:45:05
Guillaume Martin84:01:31
Facts from Tour de France 2015
  |   Stages.  |   Stage winners.  |   Days in yellow  |   Average speed.  |   Route.  |   Teams.  |   All riders.  |   Rookies.  |  

  |   Withdrawls.  |   GC.  |   Polka  |   Green  |   White  |   Summits. (In tour)  |   Miscellaneous.  |  

Stage 18 on 23 - 07 - 2015
         Owning:    Christopher Froome      Christopher Froome      Peter Sagan      Nairo Quintana  

Pick a stage:  1 2 3 4 5 6 7 8 9 10 11 12 13 14 15 16 17 18 19 20 21
  GapSaint-Jean-de-Maurienne | Dist: 185.00 km.
Cat: 2Col BayardESPJoaquim Rodriguez5 points 
Cat: 3Rampe du MottyESPJoaquim Rodriguez2 points 
Cat: 3Côte de la MureESPJoaquim Rodriguez2 points 
Cat: 3Col de MalissolESPJoaquim Rodriguez2 points 
Cat: 2Col de la MorteESPJoaquim Rodriguez5 points 
Cat: HCol du GlandonFRARomain Bardet25 points 
Cat: 2Lacets de MontvernierFRARomain Bardet5 points 

Average speed for all riders in stage:  33,858 km./hr.
    Place:Name:Team:Time:Km/h:
1
FRARomain BardetFRAAg2r La Mondiale05:03:40  +  00:00:00=36,553 
2
FRAPierre RollandFRATeam Europcar05:04:13  +  00:00:33=36,487 
3
COLWinner AnaconaESPMovistar Team05:04:39  +  00:00:59=36,435 
44 LUXBob JungelsUSATrek Factory Racing05:04:39  +  00:00:59=36,435 
55 SUIJakob FuglsangKAZAstana Pro Team05:04:39  +  00:00:59=36,435 
66 BELSerge PauwelsZAFMTN - Qhubeka P/B Samsung05:04:41  +  00:01:01=36,431 
77 FRACyril GautierFRATeam Europcar05:05:30  +  00:01:50=36,334 
88 ITADamiano CarusoUSABMC Racing Team05:05:30  +  00:01:50=36,334 
99 USAAndrew TalanskyUSATeam Cannondale - Garmin05:05:35  +  00:01:55=36,324 
1010 FRAWarren BarguilDEUTeam Giant Alpecin05:06:42  +  00:03:02=36,192 
1111 NEDRobert GesinkNLDTeam Lotto NL - Jumbo05:06:42  +  00:03:02=36,192 
1212 KENChristopher FroomeGBRSky Procycling05:06:42  +  00:03:02=36,192 
1313 ESPAlejandro ValverdeESPMovistar Team05:06:42  +  00:03:02=36,192 
1414 WALGeraint ThomasGBRSky Procycling05:06:42  +  00:03:02=36,192 
1515 ESPAlberto ContadorRUSTinkoff Saxo05:06:42  +  00:03:02=36,192 
1616 SUIMathias FrankCHEIAM Cycling05:06:42  +  00:03:02=36,192 
1717 COLNairo QuintanaESPMovistar Team05:06:42  +  00:03:02=36,192 
1818 ITAVincenzo NibaliKAZAstana Pro Team05:06:42  +  00:03:02=36,192 
1919 ITAMichele ScarponiKAZAstana Pro Team05:06:42  +  00:03:02=36,192 
2020 ESPSamuel SanchezUSABMC Racing Team05:07:01  +  00:03:21=36,154 
2121 NEDBauke MollemaUSATrek Factory Racing05:07:01  +  00:03:21=36,154 
2222 ESPRubén PlazaITALampre-Merida05:08:52  +  00:05:12=35,938 
2323 POLRafal MajkaRUSTinkoff Saxo05:09:13  +  00:05:33=35,897 
2424 URSTanel KangertKAZAstana Pro Team05:10:12  +  00:06:32=35,783 
2525 FRAMickaël CherelFRAAg2r La Mondiale05:10:25  +  00:06:45=35,758 
2626 CZELeopold KönigGBRSky Procycling05:10:36  +  00:06:56=35,737 
2727 RSAJacques Janse Van RensburgZAFMTN - Qhubeka P/B Samsung05:11:40  +  00:08:00=35,615 
2828 CANRyder HesjedalUSATeam Cannondale - Garmin05:12:12  +  00:08:32=35,554 
2929 ESPJonathan CastroviejoESPMovistar Team05:12:40  +  00:09:00=35,501 
3030 CZEJan BártaDEUBora-Argon 1805:12:59  +  00:09:19=35,465 
3131 FRAFlorian VachonFRABretagne - Séché Environnement05:12:59  +  00:09:19=35,465 
3232 FRAThomas VoecklerFRATeam Europcar05:12:59  +  00:09:19=35,465 
3333 CZERoman KreuzigerRUSTinkoff Saxo05:13:02  +  00:09:22=35,459 
3434 NEDSteven KruijswijkNLDTeam Lotto NL - Jumbo05:14:43  +  00:11:03=35,270 
3535 ESPJoaquim RodriguezRUSTeam Katusha05:18:06  +  00:14:26=34,895 
3636 BELJan BakelantsFRAAg2r La Mondiale05:18:31  +  00:14:51=34,849 
3737 SUIDanilo WyssUSABMC Racing Team05:18:31  +  00:14:51=34,849 
3838 PORNelson OliveiraITALampre-Merida05:18:31  +  00:14:51=34,849 
3939 FRAPierre-Luc PérichonFRABretagne - Séché Environnement05:19:21  +  00:15:41=34,758 
4040 FRANicolas RocheGBRSky Procycling05:19:21  +  00:15:41=34,758 
4141 NEDWout PoelsGBRSky Procycling05:19:21  +  00:15:41=34,758 
4242 ESPGorka Izaguirre InsaustiESPMovistar Team05:19:45  +  00:16:05=34,715 
4343 NEDStef ClementCHEIAM Cycling05:19:49  +  00:16:09=34,707 
4444 FRAThibaut PinotFRAFDJ05:19:52  +  00:16:12=34,702 
4545 ESPLuis Angel MateFRACofidis – Solutions Crédits05:20:36  +  00:16:56=34,623 
4646 ENGDaniel MartinUSATeam Cannondale - Garmin05:20:51  +  00:17:11=34,596 
4747 RSAReinardt Janse Van RensburgZAFMTN - Qhubeka P/B Samsung05:21:08  +  00:17:28=34,565 
4848 BELThomas De GendtBELLotto Soudal05:22:13  +  00:18:33=34,449 
4949 ITADaniel OssUSABMC Racing Team05:22:24  +  00:18:44=34,429 
5050 AUTGeorg PreidlerDEUTeam Giant Alpecin05:22:24  +  00:18:44=34,429 
5151 SUIMarcel WyssCHEIAM Cycling05:22:24  +  00:18:44=34,429 
5252 NEDBram TankinkNLDTeam Lotto NL - Jumbo05:22:24  +  00:18:44=34,429 
5353 AUSRichie PorteGBRSky Procycling05:22:24  +  00:18:44=34,429 
5454 AUSMichael RogersRUSTinkoff Saxo05:22:24  +  00:18:44=34,429 
5555 AUSMichael MatthewsAUSOrica - GreenEDGE05:22:24  +  00:18:44=34,429 
5656 ENGSimon YatesAUSOrica - GreenEDGE05:22:24  +  00:18:44=34,429 
5757 GERPaul MartensNLDTeam Lotto NL - Jumbo05:22:24  +  00:18:44=34,429 
5858 FRARomain SicardFRATeam Europcar05:22:24  +  00:18:44=34,429 
5959 SUIMichael SchärUSABMC Racing Team05:22:24  +  00:18:44=34,429 
6060 FRAChristophe RiblonFRAAg2r La Mondiale05:22:24  +  00:18:44=34,429 
6161 FRAJean-Christophe PeraudFRAAg2r La Mondiale05:22:24  +  00:18:44=34,429 
6262 ESPImanol ErvitiESPMovistar Team05:22:24  +  00:18:44=34,429 
6363 NEDLieuwe WestraKAZAstana Pro Team05:24:37  +  00:20:57=34,194 
6464 FRAMatthieu LadagnousFRAFDJ05:25:28  +  00:21:48=34,105 
6565 FRAPierrick FédrigoFRABretagne - Séché Environnement05:31:08  +  00:27:28=33,521 
6666 FRAFrédéric BrunFRABretagne - Séché Environnement05:31:08  +  00:27:28=33,521 
6767 FRAJérémy RoyFRAFDJ05:31:08  +  00:27:28=33,521 
6868 FRAPerrig QuemeneurFRATeam Europcar05:31:08  +  00:27:28=33,521 
6969 DENLars BakBELLotto Soudal05:31:08  +  00:27:28=33,521 
7070 FRAAnthony DelaplaceFRABretagne - Séché Environnement05:31:08  +  00:27:28=33,521 
7171 SUIReto HollensteinCHEIAM Cycling05:31:08  +  00:27:28=33,521 
7272 ESPHaimar ZubeldiaUSATrek Factory Racing05:31:08  +  00:27:28=33,521 
7373 SUIMartin ElmigerCHEIAM Cycling05:31:08  +  00:27:28=33,521 
7474 SUIGregory RastUSATrek Factory Racing05:31:08  +  00:27:28=33,521 
7575 UKRAndriy GrivkoKAZAstana Pro Team05:31:08  +  00:27:28=33,521 
7676 SLOKristjan KorenUSATeam Cannondale - Garmin05:31:08  +  00:27:28=33,521 
7777 DENMichael ValgrenRUSTinkoff Saxo05:31:08  +  00:27:28=33,521 
7878 ITAManuel QuinziatoUSABMC Racing Team05:31:08  +  00:27:28=33,521 
7979 ITAGiampaolo CarusoRUSTeam Katusha05:31:08  +  00:27:28=33,521 
8080 NEDWilco KeldermanNLDTeam Lotto NL - Jumbo05:31:08  +  00:27:28=33,521 
8181 BELSep VanmarckeNLDTeam Lotto NL - Jumbo05:31:08  +  00:27:28=33,521 
8282 KAZDmitriy GruzdevKAZAstana Pro Team05:31:08  +  00:27:28=33,521 
8383 ESPMarkel IrizarUSATrek Factory Racing05:31:08  +  00:27:28=33,521 
8484 BELTim WellensBELLotto Soudal05:31:08  +  00:27:28=33,521 
8585 AUSRohan DennisUSABMC Racing Team05:31:08  +  00:27:28=33,521 
8686 NEDKoen De KortDEUTeam Giant Alpecin05:31:08  +  00:27:28=33,521 
8787 ESPJosé Herrada LópezESPMovistar Team05:31:08  +  00:27:28=33,521 
8888 WALLuke RoweGBRSky Procycling05:31:08  +  00:27:28=33,521 
8989 COLJulián ArredondoUSATrek Factory Racing05:31:08  +  00:27:28=33,521 
9090 COLJarlinson Pantano GomezCHEIAM Cycling05:31:08  +  00:27:28=33,521 
9191 ENGIan StannardGBRSky Procycling05:31:08  +  00:27:28=33,521 
9292 AUSAdam HansenBELLotto Soudal05:34:38  +  00:30:58=33,171 
9393 NEDDylan Van BaarleUSATeam Cannondale - Garmin05:34:38  +  00:30:58=33,171 
9494 ITAMatteo BonoITALampre-Merida05:34:38  +  00:30:58=33,171 
9595 HRVKristijan DurasekITALampre-Merida05:34:38  +  00:30:58=33,171 
9696 POLBartosz HuzarskiDEUBora-Argon 1805:34:38  +  00:30:58=33,171 
9797 FRAFlorian SénéchalFRACofidis – Solutions Crédits05:34:38  +  00:30:58=33,171 
9898 FRAArnaud GérardFRABretagne - Séché Environnement05:34:38  +  00:30:58=33,171 
9999 FRANicolas EdetFRACofidis – Solutions Crédits05:34:38  +  00:30:58=33,171 
100100 ENGAdam YatesAUSOrica - GreenEDGE05:38:12  +  00:34:32=32,821 
101101 COLJosé SerpaITALampre-Merida05:39:31  +  00:35:51=32,694 
102102 CZEZdenek StybarBELEtixx - Quick Step05:39:31  +  00:35:51=32,694 
103103 IOMMark CavendishBELEtixx - Quick Step05:39:31  +  00:35:51=32,694 
104104 NEDRoy CurversDEUTeam Giant Alpecin05:39:31  +  00:35:51=32,694 
105105 ENGStephen CummingsZAFMTN - Qhubeka P/B Samsung05:39:31  +  00:35:51=32,694 
106106 BELJulien VermoteBELEtixx - Quick Step05:39:31  +  00:35:51=32,694 
107107 GERJohn DegenkolbDEUTeam Giant Alpecin05:39:31  +  00:35:51=32,694 
108108 FRASylvain ChavanelCHEIAM Cycling05:39:31  +  00:35:51=32,694 
109109 ITAFilippo PozzatoITALampre-Merida05:39:31  +  00:35:51=32,694 
110110 NEDAlbert TimmerDEUTeam Giant Alpecin05:39:31  +  00:35:51=32,694 
111111 FRAAlexis VuillermozFRAAg2r La Mondiale05:39:31  +  00:35:51=32,694 
112112 POLMichal GolasBELEtixx - Quick Step05:39:31  +  00:35:51=32,694 
113113 FRAAlexandre GeniezFRAFDJ05:39:31  +  00:35:51=32,694 
114114 FRABenoit VaugrenardFRAFDJ05:39:31  +  00:35:51=32,694 
115115 GERPaul VossDEUBora-Argon 1805:39:31  +  00:35:51=32,694 
116116 ESPRafael Valls FerriITALampre-Merida05:39:31  +  00:35:51=32,694 
117117 ITAMatteo TrentinBELEtixx - Quick Step05:39:31  +  00:35:51=32,694 
118118 FRAJulien SimonFRACofidis – Solutions Crédits05:39:31  +  00:35:51=32,694 
119119 URSRamunas NavardauskasUSATeam Cannondale - Garmin05:39:31  +  00:35:51=32,694 
120120 ERIMerhawi GhebremedhinZAFMTN - Qhubeka P/B Samsung05:39:31  +  00:35:51=32,694 
121121 PORTiago PintoRUSTeam Katusha05:39:31  +  00:35:51=32,694 
122122 NOREdvald Boasson HagenZAFMTN - Qhubeka P/B Samsung05:39:31  +  00:35:51=32,694 
123123 GERAndré GreipelBELLotto Soudal05:39:31  +  00:35:51=32,694 
124124 FRAArmindo FonsecaFRABretagne - Séché Environnement05:39:31  +  00:35:51=32,694 
125125 ITAMatteo TosattoRUSTinkoff Saxo05:39:31  +  00:35:51=32,694 
126126 ITAAdriano MaloriESPMovistar Team05:39:31  +  00:35:51=32,694 
127127 FRATony GallopinBELLotto Soudal05:39:31  +  00:35:51=32,694 
128128 FRABryan NauleauFRATeam Europcar05:39:31  +  00:35:51=32,694 
129129 ERIDaniel TeklehaimanotZAFMTN - Qhubeka P/B Samsung05:39:31  +  00:35:51=32,694 
130130 FRAAngelo TulikFRATeam Europcar05:39:31  +  00:35:51=32,694 
131131 ITAJacopo GuarnieriRUSTeam Katusha05:39:31  +  00:35:51=32,694 
132132 NEDPieter WeeningAUSOrica - GreenEDGE05:39:31  +  00:35:51=32,694 
133133 ESPAlberto LosadaRUSTeam Katusha05:39:31  +  00:35:51=32,694 
134134 COLRigoberto UránBELEtixx - Quick Step05:39:31  +  00:35:51=32,694 
135135 FRAGeoffrey SoupeFRACofidis – Solutions Crédits05:39:31  +  00:35:51=32,694 
136136 FRAChristophe LaporteFRACofidis – Solutions Crédits05:39:31  +  00:35:51=32,694 
137137 SVKPeter SaganRUSTinkoff Saxo05:39:31  +  00:35:51=32,694 
138138 GEREmanuel BuchmannDEUBora-Argon 1805:39:31  +  00:35:51=32,694 
139139 ITADavide CimolaiITALampre-Merida05:39:31  +  00:35:51=32,694 
140140 PORJosé João PimentaDEUBora-Argon 1805:39:31  +  00:35:51=32,694 
141141 GERMarcel SiebergBELLotto Soudal05:39:31  +  00:35:51=32,694 
142142 FRASébastien ChavanelFRAFDJ05:39:31  +  00:35:51=32,694 
143143 FRABrice FeilluFRABretagne - Séché Environnement05:39:31  +  00:35:51=32,694 
144144 FRAYohann GèneFRATeam Europcar05:39:31  +  00:35:51=32,694 
145145 AUTMarco HallerRUSTeam Katusha05:39:31  +  00:35:51=32,694 
146146 CANSvein TuftAUSOrica - GreenEDGE05:39:31  +  00:35:51=32,694 
147147 BELKenneth VanbilsenFRACofidis – Solutions Crédits05:39:31  +  00:35:51=32,694 
148148 AUSLuke DurbridgeAUSOrica - GreenEDGE05:39:31  +  00:35:51=32,694 
149149 BELStijn DevolderUSATrek Factory Racing05:39:31  +  00:35:51=32,694 
150150 ESPDaniel NavarroFRACofidis – Solutions Crédits05:39:31  +  00:35:51=32,694 
151151 NEDLaurens ten DamNLDTeam Lotto NL - Jumbo05:39:31  +  00:35:51=32,694 
152152 BELJens DebusschereBELLotto Soudal05:39:31  +  00:35:51=32,694 
153153 USATyler FarrarZAFMTN - Qhubeka P/B Samsung05:39:31  +  00:35:51=32,694 
154154 GERSimon GeschkeDEUTeam Giant Alpecin05:39:31  +  00:35:51=32,694 
155155 NEDJos Van EmdenNLDTeam Lotto NL - Jumbo05:39:31  +  00:35:51=32,694 
156156 NEDTom LeezerNLDTeam Lotto NL - Jumbo05:39:31  +  00:35:51=32,694 
157157 NORAlexander KristoffRUSTeam Katusha05:39:31  +  00:35:51=32,694 
158158 FRAArnaud DémareFRAFDJ05:39:31  +  00:35:51=32,694 
159159 AUTMatthias BrändleCHEIAM Cycling05:39:31  +  00:35:51=32,694 
160160 FRABryan CoquardFRATeam Europcar05:39:31  +  00:35:51=32,694 
161161 FRADamien GaudinFRAAg2r La Mondiale05:39:31  +  00:35:51=32,694 

Withdrawls: 2
 
Rider
Team
Reason
115  AUSMark RenshawBELEtixx - Quick StepDid not finish
218  RSALouis MeintjesZAFMTN - Qhubeka P/B SamsungDid not start
Todays birthdays.

1878  Louis Gardent
1904  Ludwig Geyer
1911  Paul Egli
1916  Piet Van Nek
1926  Bruno Garonzi
1933  Roger Baens
1938  Roland Zöffel
1945  Marcello Osler
1946  Antonio Menendez
1962  Niki Rüttimann
1969  Serge Baguet
1970  Cédric Vasseur
1971  Cristian Salvato
1972  Sven Teutenberg
1988  Frédéric Brun